Dewpoint
-3 -6 -6 -2 -1 0 3 3 2 6 7 8 8 8 8 9 8 7 6 6 7 1 1 2 2 1 0 -0 -0 -1 -2 -5 -5 -6 -3 -4 -5 -7 -6 -7 -6 -6 -4 -4 -5 -8 -6 -4 -3 -5 -8 -10 -9 -9
-9 -8 -3 -1 -1 1 3 3 4 6 7 8 8 8 8 8 7 5 5 5 6 2 -1 -0 1 2 2 1 -2 -4 -4 -7 -7 -5 -7 -5 -4 -4 -5 -6 -8 -5 -6 -6 -6 -6 -9 -6 -9 -11 -10 -9 -9 -7
-3 -3 -1 -0 1 1 4 4 5 7 8 8 8 8 8 6 5 5 5 5 5 -2 -3 -4 -6 -4 -1 -4 -4 -5 -8 -9 -10 -11 -6 -5 -6 -6 -5 -5 -8 -9 -9 -6 -7 -9 -8 -10 -11 -10 -8 -7 -5 -5
-2 -1 -1 0 -0 1 5 4 5 7 8 8 8 8 6 5 5 5 5 4 3 -2 -4 -10 -11 -11 -9 -6 -6 -7 -8 -9 -11 -10 -9 -6 -6 -8 -7 -8 -7 -9 -7 -6 -8 -8 -9 -10 -10 -9 -6 -5 -4 -3
-3 -3 1 1 2 4 5 3 6 8 8 7 6 4 4 5 5 5 3 2 -1 -5 -5 -9 -11 -11 -13 -13 -12 -13 -10 -10 -10 -9 -8 -7 -8 -7 -7 -6 -6 -8 -7 -8 -7 -10 -9 -9 -10 -7 -4 -4 -2 -2
0 2 1 2 3 5 5 6 7 7 6 7 4 4 4 4 3 2 -8 -11 -13 -11 -12 -5 -8 -9 -11 -12 -9 -9 -9 -10 -10 -10 -9 -9 -8 -8 -6 -5 -7 -9 -9 -10 -9 -11 -10 -8 -9 -6 -3 -4 -4 -4
2 2 2 3 4 5 5 5 5 4 4 3 3 2 2 -2 -6 -19 -13 -13 -16 -21 -14 -7 -8 -8 -8 -9 -9 -10 -11 -10 -11 -9 -8 -9 -8 -7 -8 -5 -10 -11 -10 -9 -9 -8 -7 -9 -7 -4 -3 -3 -4 -4
1 1 1 3 3 3 3 3 3 3 1 -3 -6 -9 -12 -13 -12 -9 -10 -12 -12 -13 -11 -5 -6 -7 -8 -8 -4 -5 -6 -7 -7 -7 -6 -6 -7 -7 -6 -8 -10 -10 -9 -9 -9 -9 -9 -7 -3 -3 -3 -3 -5 -5
-0 1 2 2 2 2 2 -2 -5 -7 -9 -10 -10 -13 -16 -12 -8 -8 -10 -10 -11 -10 -5 -6 -5 -6 -5 -3 -4 -4 -5 -6 -6 -7 -5 -6 -6 -6 -7 -7 -7 -8 -7 -8 -7 -4 -3 -2 -3 -3 -3 -6 -6 -6
-0 -0 -0 -1 -1 -5 -5 -4 -6 -8 -10 -11 -17 -20 -8 -8 -10 -12 -14 -14 -12 -7 -6 -5 -5 -4 -5 -4 -5 -5 -4 -8 -7 -6 -6 -6 -5 -7 -6 -4 -3 -4 -3 -5 -3 -3 -2 -3 -3 -4 -5 -6 -6 -6
-4 -4 -5 -4 -6 -10 -13 -13 -13 -15 -17 -19 -12 -5 -8 -12 -14 -12 -6 -6 -6 -6 -6 -5 -5 -5 -5 -5 -6 -4 -6 -5 -7 -7 -5 -4 -4 -6 -4 -3 -3 -3 -3 -3 -4 -4 -4 -5 -6 -5 -5 -6 -6 -6
-6 -6 -7 -8 -9 -11 -14 -17 -18 -18 -17 -16 -11 -11 -12 -9 -8 -7 -6 -5 -4 -5 -5 -5 -5 -4 -4 -5 -6 -5 -4 -6 -3 -5 -3 -6 -5 -3 -3 -3 -3 -4 -4 -4 -4 -3 -4 -4 -4 -4 -4 -4 -4 -4
-5 -6 -7 -9 -12 -14 -16 -15 -15 -22 -19 -17 -15 -11 -11 -9 -9 -10 -6 -4 -5 -4 -4 -4 -5 -3 -3 -5 -5 -5 -4 -6 -4 -3 -4 -5 -4 -3 -3 -2 -3 -3 -3 -4 -4 -4 -3 -4 -5 -5 -5 -5 -5 -6
-7 -8 -9 -11 -12 -15 -16 -14 -15 -17 -21 -16 -10 -9 -10 -11 -6 -6 -6 -6 -5 -4 -5 -5 -4 -5 -4 -5 -6 -6 -5 -4 -5 -4 -4 -9 -4 -3 -3 -3 -3 -3 -5 -4 -4 -4 -5 -6 -7 -7 -7 -6 -7 -8
-9 -9 -9 -9 -10 -10 -11 -14 -18 -27 -16 -9 -9 -8 -7 -5 -4 -3 -3 -4 -5 -5 -6 -5 -5 -5 -6 -6 -5 -4 -4 -4 -4 -5 -7 -5 -4 -4 -3 -2 -3 -4 -4 -4 -6 -7 -7 -8 -9 -9 -10 -10 -9 -10
-11 -13 -11 -11 -13 -14 -15 -17 -23 -16 -9 -7 -6 -5 -4 -4 -5 -4 -3 -3 -4 -5 -5 -5 -6 -5 -4 -4 -3 -4 -4 -5 -6 -6 -4 -5 -5 -4 -3 -4 -5 -5 -5 -6 -7 -8 -9 -9 -9 -9 -10 -9 -9 -10
-19 -9 -8 -9 -10 -12 -14 -16 -13 -9 -6 -6 -6 -5 -6 -5 -6 -6 -5 -4 -4 -4 -7 -5 -5 -4 -6 -5 -3 -5 -7 -10 -6 -5 -4 -4 -3 -4 -5 -6 -7 -7 -7 -8 -8 -9 -10 -9 -9 -9 -9 -10 -10 -10
-12 -9 -9 -9 -9 -10 -12 -8 -8 -7 -6 -6 -7 -6 -6 -6 -6 -6 -6 -5 -5 -4 -5 -5 -4 -3 -6 -4 -5 -7 -4 -4 -5 -5 -5 -5 -5 -7 -7 -7 -8 -8 -9 -11 -12 -11 -11 -12 -14 -14 -13 -12 -12 -13
-13 -11 -10 -10 -10 -8 -7 -8 -7 -6 -6 -5 -6 -6 -6 -6 -7 -7 -7 -6 -4 -4 -5 -4 -4 -4 -5 -5 -5 -5 -5 -5 -5 -5 -6 -6 -7 -7 -8 -9 -9 -11 -12 -13 -13 -13 -13 -14 -14 -14 -12 -12 -12 -12
-21 -18 -12 -10 -9 -7 -6 -6 -7 -7 -6 -6 -6 -5 -5 -5 -5 -6 -7 -6 -4 -5 -5 -4 -5 -6 -6 -6 -6 -5 -5 -5 -6 -8 -11 -10 -8 -8 -9 -9 -10 -11 -13 -13 -13 -13 -14 -14 -14 -13 -13 -13 -14 -15
-19 -20 -18 -16 -9 -7 -7 -6 -7 -7 -7 -7 -6 -6 -6 -6 -6 -5 -5 -6 -5 -3 -4 -5 -6 -7 -6 -6 -6 -5 -5 -8 -11 -8 -8 -8 -9 -9 -10 -11 -12 -13 -14 -14 -15 -15 -15 -15 -14 -14 -15 -15 -16 -16
-13 -16 -15 -14 -11 -9 -7 -6 -7 -7 -7 -6 -7 -7 -6 -5 -5 -6 -5 -4 -4 -5 -6 -7 -6 -6 -6 -5 -5 -7 -11 -10 -8 -8 -9 -10 -10 -11 -12 -13 -14 -15 -16 -17 -16 -15 -15 -15 -15 -16 -17 -18 -18 -19
-12 -13 -11 -10 -10 -9 -7 -6 -8 -7 -7 -6 -7 -6 -6 -7 -6 -5 -4 -5 -5 -5 -5 -5 -4 -4 -4 -6 -10 -12 -10 -8 -8 -9 -9 -10 -11 -12 -14 -15 -16 -18 -18 -17 -16 -16 -16 -17 -18 -18 -18 -19 -18 -18
-10 -8 -6 -6 -9 -9 -7 -6 -6 -6 -7 -5 -5 -7 -7 -6 -5 -6 -6 -7 -7 -6 -5 -4 -5 -6 -9 -12 -12 -10 -9 -9 -9 -10 -10 -11 -13 -15 -17 -18 -19 -18 -18 -17 -18 -18 -19 -18 -18 -18 -18 -18 -18 -18
-9 -8 -8 -10 -6 -8 -9 -11 -9 -7 -9 -8 -8 -9 -9 -7 -8 -8 -8 -9 -7 -6 -6 -6 -7 -10 -12 -11 -10 -9 -9 -9 -11 -11 -13 -14 -18 -19 -19 -20 -19 -20 -20 -19 -19 -19 -19 -18 -18 -18 -18 -18 -17 -17
-11 -7 -10 -10 -9 -9 -8 -10 -10 -10 -9 -9 -8 -7 -8 -9 -9 -8 -8 -9 -9 -8 -7 -7 -7 -8 -10 -9 -9 -9 -10 -11 -13 -13 -16 -20 -19 -20 -20 -21 -22 -20 -19 -19 -19 -19 -18 -18 -18 -18 -17 -17 -17 -17
-10 -10 -7 -8 -7 -7 -8 -7 -7 -8 -9 -9 -9 -9 -9 -8 -9 -9 -9 -8 -8 -9 -8 -7 -8 -8 -8 -8 -9 -10 -13 -13 -14 -19 -20 -20 -20 -20 -22 -22 -20 -20 -19 -19 -18 -18 -18 -18 -18 -17 -17 -17 -17 -17
-7 -7 -9 -6 -6 -6 -10 -9 -9 -8 -8 -8 -8 -8 -8 -8 -9 -10 -9 -9 -8 -9 -8 -8 -7 -7 -8 -9 -12 -16 -16 -16 -20 -20 -20 -20 -21 -23 -22 -20 -20 -19 -19 -19 -18 -18 -18 -18 -17 -17 -17 -17 -17 -17
-7 -6 -7 -10 -7 -7 -7 -9 -9 -8 -8 -8 -8 -9 -9 -8 -9 -9 -9 -9 -8 -7 -7 -7 -8 -8 -9 -12 -16 -17 -17 -19 -20 -20 -21 -23 -24 -23 -20 -20 -20 -19 -19 -18 -18 -17 -17 -17 -17 -17 -17 -17 -17 -17
-7 -6 -6 -8 -9 -8 -8 -8 -8 -8 -8 -7 -8 -8 -7 -8 -8 -8 -8 -7 -7 -7 -7 -7 -7 -8 -11 -14 -17 -16 -16 -17 -20 -22 -23 -24 -24 -21 -20 -20 -20 -19 -19 -18 -17 -17 -17 -17 -17 -16 -17 -17 -17 -17
-7 -7 -7 -7 -8 -7 -7 -8 -8 -7 -6 -6 -6 -6 -6 -6 -7 -7 -7 -6 -6 -6 -6 -7 -8 -10 -13 -16 -17 -17 -17 -20 -22 -23 -24 -24 -22 -21 -20 -20 -19 -19 -18 -18 -17 -17 -17 -17 -17 -17 -16 -17 -17 -17
-7 -6 -7 -9 -8 -6 -6 -6 -6 -6 -6 -6 -6 -6 -6 -7 -7 -8 -8 -7 -6 -6 -7 -8 -9 -12 -15 -16 -18 -19 -22 -23 -23 -24 -25 -24 -21 -20 -20 -20 -19 -19 -18 -18 -17 -17 -17 -17 -17 -17 -16 -17 -17 -17
-6 -5 -5 -5 -7 -7 -6 -6 -7 -8 -7 -7 -7 -7 -7 -7 -8 -9 -8 -8 -7 -7 -8 -10 -11 -12 -16 -20 -20 -21 -22 -23 -23 -24 -25 -22 -21 -20 -20 -21 -20 -19 -18 -18 -17 -17 -17 -17 -17 -17 -17 -17 -17 -17
Wind_Speed
33 29 26 27 27 32 27 34 41 39 49 40 30 32 32 41 36 52 33 32 27 11 12 8 9 11 12 11 4 10 6 2 2 3 2 2 2 2 1 1 3 4 3 3 3 1 6 9 5 5 7 19 26 24
30 29 28 27 27 30 30 35 38 39 43 37 33 36 39 43 44 47 30 22 21 14 12 16 12 11 11 12 15 16 2 5 7 4 1 2 2 2 3 2 1 3 6 4 7 5 4 13 11 21 24 26 29 24
26 27 26 24 30 29 29 35 39 41 36 31 27 36 37 43 49 42 32 28 24 20 18 15 15 12 13 8 13 8 6 7 7 6 6 2 2 3 3 4 3 3 6 3 1 3 11 17 19 24 17 16 16 18
23 24 23 24 27 29 31 38 38 34 34 33 32 29 30 39 36 28 29 24 22 16 7 5 9 14 12 11 9 6 10 13 15 9 4 2 2 5 3 2 4 7 7 5 5 9 15 23 15 14 14 15 16 15
22 19 24 27 29 28 39 42 33 39 32 29 27 32 33 33 27 29 28 20 18 6 7 12 18 13 9 6 7 8 12 16 11 4 3 2 3 3 1 1 4 9 6 4 6 11 11 10 13 12 12 17 11 10
20 20 28 30 31 34 39 40 40 36 37 31 37 36 32 31 31 35 16 10 17 37 13 3 9 8 11 11 13 13 11 8 5 4 3 2 3 4 2 3 7 15 16 20 8 14 17 16 20 16 13 9 7 10
22 21 40 43 42 40 41 45 49 48 45 43 38 35 34 34 26 5 11 21 20 12 9 4 3 5 9 10 10 9 7 5 4 4 3 3 4 6 2 3 4 6 10 15 19 18 17 23 17 8 10 9 9 10
45 48 48 40 47 52 55 53 49 48 47 49 48 43 32 25 33 34 27 20 16 16 9 4 2 4 5 4 3 3 3 2 2 2 3 3 4 4 4 10 13 13 14 15 15 21 25 18 11 11 9 9 11 11
55 56 56 56 56 53 53 53 53 52 51 49 43 36 31 25 15 24 23 20 16 11 7 4 4 3 7 4 4 3 3 2 0 1 2 3 2 4 4 6 15 20 15 17 13 7 7 8 9 8 9 11 14 14
53 52 51 51 50 48 48 48 48 47 45 41 35 12 7 14 28 18 6 3 6 8 7 2 4 3 5 2 2 3 1 1 0 3 4 2 3 12 11 16 19 21 15 11 7 1 5 7 8 12 16 18 16 17
51 49 48 48 48 49 48 46 43 42 40 24 6 7 32 24 7 5 4 6 4 4 4 3 6 5 4 3 3 3 2 2 1 4 2 2 3 2 5 2 4 6 4 7 9 7 5 8 12 14 16 18 20 20
47 47 46 45 45 45 45 43 36 25 13 15 30 30 12 4 5 6 2 1 3 3 2 5 5 6 5 3 4 3 2 1 2 4 1 3 3 3 4 4 3 4 5 9 8 8 12 16 20 22 23 23 18 15
42 39 37 36 36 38 36 27 19 39 49 38 9 6 1 6 8 5 3 2 3 5 7 7 2 5 4 3 4 2 1 3 3 2 3 3 5 6 5 3 6 8 10 12 14 15 16 15 14 16 17 17 15 16
33 31 30 29 28 27 24 26 32 31 10 6 5 6 3 3 1 3 3 4 5 13 21 16 6 3 3 3 2 3 2 2 2 3 4 3 7 8 8 11 12 11 15 16 17 17 20 19 19 18 16 16 17 17
30 29 28 25 24 25 27 30 12 8 6 6 5 3 2 5 8 11 13 13 17 20 15 9 5 4 2 3 0 2 1 3 4 4 2 4 4 8 11 11 13 16 17 15 15 17 17 17 17 16 15 16 16 16
27 28 26 20 20 19 15 10 8 8 5 4 6 6 10 9 3 12 21 16 14 16 11 5 3 3 1 2 2 5 2 4 3 3 4 7 10 13 14 12 15 16 16 14 11 11 12 13 17 19 19 15 14 14
21 25 17 16 15 13 13 11 7 7 6 5 4 13 8 13 9 8 12 11 13 7 2 3 3 2 2 2 1 3 4 3 2 6 8 9 12 12 16 18 17 15 12 12 13 16 16 17 16 14 11 11 11 11
24 18 14 14 15 14 12 8 6 6 6 6 5 9 8 12 15 10 8 13 6 5 5 3 5 2 3 3 3 3 5 5 7 10 12 11 14 16 13 10 10 11 12 14 15 14 13 16 17 16 16 17 17 18
16 13 11 8 5 6 5 5 5 5 5 6 13 12 11 13 12 11 12 11 10 10 9 4 3 2 3 5 4 2 4 6 9 11 12 12 11 11 12 12 10 11 13 16 15 12 12 14 14 15 16 16 15 15
11 10 9 7 5 4 4 4 4 6 4 5 8 9 7 8 12 11 13 13 11 6 3 1 3 4 4 3 5 7 8 9 11 10 10 11 11 12 9 7 8 11 15 15 13 13 14 14 14 14 15 16 20 25
10 10 8 5 7 7 6 4 5 5 7 5 10 6 5 8 8 9 8 10 3 3 3 9 10 8 8 8 9 8 9 8 5 6 9 12 8 7 9 9 10 12 13 13 15 16 16 16 15 17 20 23 25 29
10 7 5 8 6 5 6 7 5 5 4 6 5 4 5 4 5 6 8 3 4 7 8 9 12 13 10 8 6 6 5 5 5 6 9 6 7 8 9 11 12 13 14 16 16 15 17 18 21 23 26 28 28 27
6 6 6 6 5 5 3 3 3 3 3 2 4 2 1 2 4 10 2 5 6 9 10 9 8 4 3 3 2 3 5 5 3 6 7 5 6 8 9 10 13 15 16 16 16 18 21 22 23 23 24 25 26 28
5 4 4 4 5 1 3 3 3 3 3 2 2 2 2 4 8 2 2 4 6 6 8 7 6 5 4 3 3 4 4 3 4 4 4 5 6 7 9 11 14 15 16 18 19 20 20 21 22 22 23 25 25 27
2 4 3 3 3 4 3 3 3 2 2 2 2 1 2 4 2 2 3 4 9 10 10 9 8 6 5 4 4 4 3 4 4 4 5 6 6 8 10 13 16 16 17 18 19 21 22 21 22 23 24 25 27 28
4 1 3 3 0 3 3 2 3 4 3 1 3 2 3 2 1 4 3 7 8 11 12 10 8 7 5 5 5 5 4 3 3 4 4 5 7 10 14 16 17 16 16 18 20 21 21 22 22 24 25 26 26 27
2 2 1 3 3 4 2 2 3 3 3 4 3 2 2 2 5 4 6 10 9 9 9 8 7 7 7 6 6 5 4 3 2 2 3 5 9 13 14 15 16 16 17 18 18 20 21 21 22 24 25 25 25 24
2 2 4 6 3 4 3 1 3 5 4 5 7 3 6 6 4 4 7 13 10 8 8 9 9 8 6 6 6 5 4 3 2 1 4 8 12 13 14 14 14 15 15 16 16 17 16 18 21 22 23 23 23 21
2 3 4 1 1 3 5 5 3 5 5 10 5 3 3 4 4 7 8 8 8 9 9 9 9 8 6 7 7 5 4 3 2 2 6 9 10 10 11 11 12 12 13 13 13 14 14 16 17 18 19 19 19 19
2 7 4 3 3 4 4 8 2 3 6 8 5 3 4 4 6 8 10 10 12 12 9 9 9 8 8 9 8 8 6 5 4 4 8 9 10 10 9 10 10 10 11 11 12 12 12 12 13 14 15 16 17 18
1 7 2 4 3 3 7 9 9 9 8 8 11 11 10 7 10 13 15 15 14 15 14 12 11 11 10 10 9 8 7 6 4 5 8 9 9 8 9 9 10 9 10 11 12 12 11 12 13 14 15 16 17 17
3 6 5 1 3 4 6 3 3 4 5 6 8 10 7 5 4 6 11 17 20 18 15 12 12 12 10 9 9 9 6 5 3 5 6 8 7 7 8 9 9 9 9 10 11 10 10 11 12 13 14 14 14 15
2 3 3 3 1 1 1 1 1 3 2 2 1 2 4 4 5 4 4 9 12 11 11 10 10 10 10 8 8 8 7 4 4 5 6 6 7 7 7 8 8 8 8 8 9 9 9 9 10 11 11 12 12 12
Wind_Direction
203 210 213 210 213 208 215 211 212 203 196 195 206 204 210 209 204 205 196 191 191 121 123 132 136 143 136 139 141 152 104 238 78 84 147 181 153 181 165 203 165 166 168 216 137 104 281 166 121 144 239 297 303 293
200 206 212 215 213 208 211 211 205 198 193 204 213 210 208 209 204 196 170 163 156 109 107 105 118 164 165 162 143 167 127 146 154 99 60 120 144 127 151 252 124 218 188 189 183 216 208 191 259 294 295 296 295 296
201 209 214 212 208 207 213 206 197 185 188 194 196 190 198 197 189 189 162 146 142 94 82 81 89 97 172 167 159 134 175 158 151 128 144 144 149 133 168 225 203 244 188 213 33 244 248 268 293 299 309 294 303 294
212 215 219 213 215 214 211 201 201 186 181 186 182 182 184 179 177 179 164 148 136 108 104 87 108 93 98 154 166 159 162 148 138 122 92 134 155 187 217 224 191 204 162 208 258 277 272 274 271 289 282 287 302 287
211 221 218 211 216 201 192 190 193 178 177 174 164 160 164 161 154 157 139 129 124 114 135 128 94 74 90 116 123 115 152 146 135 97 87 187 153 139 210 358 237 184 200 170 227 231 229 259 311 291 282 309 312 281
212 212 207 217 198 183 185 185 184 170 157 157 153 151 149 144 143 129 90 105 129 118 108 94 95 92 95 112 121 122 133 126 107 116 150 186 198 182 167 233 238 224 238 240 241 269 248 274 301 288 283 294 295 288
193 194 174 178 179 181 174 167 154 145 144 143 138 134 130 130 139 128 132 140 133 117 101 100 91 118 116 96 95 95 104 112 114 129 167 187 213 196 165 239 242 253 269 272 270 268 275 281 286 284 276 271 283 283
158 156 158 168 156 148 144 139 137 135 131 126 127 135 135 133 109 103 107 116 115 93 85 98 97 111 149 107 87 85 91 117 112 145 145 204 183 217 248 244 281 288 305 280 282 257 259 269 274 293 267 275 280 285
143 144 139 136 136 133 133 129 125 130 134 135 136 131 124 105 95 102 94 86 79 80 98 88 136 168 151 98 100 85 72 29 156 58 239 159 220 227 244 322 310 298 285 283 287 251 234 260 289 268 272 278 276 274
121 119 120 121 122 122 123 128 139 140 137 137 127 113 88 116 119 110 64 62 45 50 65 94 115 100 134 104 64 98 64 172 168 255 180 165 250 267 298 321 304 295 283 261 208 32 316 296 279 271 274 276 272 279
113 119 124 130 132 132 133 135 135 133 135 129 96 92 121 126 100 69 66 51 31 52 58 101 107 119 140 118 156 178 179 177 78 259 131 269 265 237 323 37 78 81 94 74 25 1 285 267 270 274 281 283 277 277
124 126 127 128 130 131 130 127 126 139 142 118 122 120 112 99 79 83 13 8 59 139 109 107 109 100 116 120 107 198 138 56 254 151 219 268 251 206 224 209 147 74 14 350 334 303 284 283 285 286 284 283 279 269
123 122 123 125 126 128 132 128 112 120 117 116 109 96 12 11 51 97 155 35 84 175 146 135 87 103 120 129 81 96 117 225 119 237 236 241 182 190 195 210 236 280 317 320 314 299 288 292 307 317 317 311 300 302
118 117 118 121 126 132 135 122 120 127 132 73 64 46 78 350 113 172 139 149 138 141 133 124 97 127 114 78 124 104 237 83 339 239 237 255 226 238 257 274 272 290 307 299 297 303 313 317 320 319 316 313 314 317
113 113 112 111 122 133 138 145 124 87 69 71 63 82 70 113 74 103 105 108 115 128 125 106 81 94 38 80 186 128 17 251 225 238 236 299 289 272 277 272 276 300 299 292 298 307 311 315 316 315 316 309 305 304
112 116 100 112 123 137 147 142 114 70 73 74 73 86 112 97 66 109 113 106 126 129 114 96 99 72 140 133 129 205 215 231 251 224 316 323 306 299 290 292 312 314 308 295 294 309 319 325 320 314 312 307 300 304
116 97 104 107 109 115 122 107 58 55 60 54 36 120 109 128 125 112 120 126 140 135 123 112 99 168 121 71 236 187 210 219 284 309 301 308 308 308 314 323 322 318 317 330 339 338 329 323 325 333 335 338 336 339
99 102 104 108 105 102 91 51 67 65 65 75 81 105 94 127 133 125 133 148 140 126 129 145 124 114 154 193 240 242 226 277 298 309 313 317 315 320 323 323 327 340 347 346 339 335 336 332 337 337 326 319 320 320
100 99 97 106 117 81 67 58 62 91 82 94 120 122 118 123 122 143 154 149 129 120 115 100 100 184 228 221 226 257 295 319 316 320 322 324 321 317 320 328 341 342 341 340 337 328 329 329 327 322 312 312 309 305
97 101 98 72 129 92 93 75 84 99 126 135 134 134 118 120 135 127 129 144 133 118 86 153 210 209 213 272 317 317 325 319 316 323 345 343 325 317 310 322 327 331 333 331 324 321 321 322 319 317 312 313 313 311
96 90 89 101 72 75 84 74 71 82 116 106 129 125 106 121 125 139 145 155 145 191 218 230 236 260 275 288 300 300 307 316 331 326 325 324 310 271 309 332 335 329 332 332 326 323 321 323 319 317 316 315 313 310
65 65 66 50 67 67 71 49 85 90 75 111 110 98 114 119 138 163 158 158 224 216 222 248 265 282 273 267 281 298 316 315 305 311 328 318 290 318 337 336 330 331 330 328 325 324 323 321 319 318 316 316 317 318
48 43 50 47 69 57 50 69 78 63 95 118 109 82 52 126 149 150 197 214 233 231 230 236 243 236 207 236 256 302 310 295 299 308 309 318 331 333 332 330 330 332 331 329 326 324 323 323 323 325 326 326 327 325
56 55 48 52 54 93 83 60 74 86 90 109 114 134 162 140 155 185 242 234 212 201 198 193 188 185 195 210 276 292 294 298 315 311 321 318 324 330 332 333 333 334 330 326 327 328 332 333 334 336 336 335 335 334
73 26 69 11 77 77 60 27 8 68 137 197 99 306 214 160 129 204 228 236 192 185 180 180 188 201 210 236 247 251 267 293 308 311 319 322 332 333 331 334 335 332 332 332 336 340 343 343 343 343 344 343 342 340
78 50 87 171 172 110 163 114 171 187 132 128 207 122 143 99 125 238 228 191 180 185 190 193 203 219 242 260 261 243 255 262 296 314 318 322 328 333 335 338 340 344 341 341 341 342 344 346 347 347 346 349 349 345
91 280 134 159 139 135 73 113 143 120 157 173 189 129 98 175 237 245 181 168 164 169 177 199 223 243 261 252 242 234 217 241 271 286 313 332 334 334 338 340 342 344 345 345 344 344 345 347 348 348 349 352 353 350
173 167 152 171 182 186 143 133 168 189 202 180 139 173 185 198 233 166 167 171 172 179 195 209 223 235 248 248 213 202 205 209 202 272 333 332 333 335 337 339 341 342 346 346 346 346 346 347 349 351 352 354 356 358
202 177 165 112 168 201 214 192 217 215 191 176 164 203 226 208 181 163 170 184 201 212 215 226 221 225 226 197 194 195 190 195 221 301 320 328 335 335 337 335 340 345 346 348 349 347 350 354 354 355 357 1 6 9
242 180 168 160 163 221 236 207 233 233 209 209 219 217 218 225 234 233 234 231 229 233 240 238 244 235 212 205 200 197 204 217 241 292 319 330 334 335 333 339 344 344 346 350 354 354 356 2 3 3 6 10 17 22
161 186 221 200 235 244 243 241 240 243 242 242 246 248 258 264 268 259 247 242 235 221 221 226 221 207 206 206 206 205 209 218 249 301 322 328 329 330 338 344 346 346 350 353 354 356 2 6 7 9 13 18 23 27
207 201 183 216 278 270 278 255 237 237 240 246 246 246 245 242 249 254 242 227 214 215 223 223 217 208 199 194 195 201 209 221 265 310 321 325 326 332 339 343 345 347 350 351 353 359 4 7 8 11 15 20 23 26
245 233 223 240 274 294 258 243 318 323 260 271 271 233 215 213 251 254 225 203 209 216 211 205 186 195 200 200 197 201 213 231 282 306 320 328 331 332 334 340 343 344 346 350 354 359 5 7 8 13 16 19 22 25
Height
1247 1252 1258 1263 1268 1275 1280 1290 1298 1303 1310 1318 1327 1335 1342 1346 1352 1361 1367 1370 1374 1385 1399 1403 1407 1412 1420 1426 1435 1444 1451 1454 1455 1464 1462 1464 1463 1461 1464 1463 1463 1468 1481 1486 1488 1506 1490 1457 1461 1467 1456 1451 1448 1447
1246 1252 1258 1262 1268 1273 1279 1286 1291 1298 1307 1316 1324 1330 1336 1341 1345 1355 1362 1367 1369 1377 1399 1405 1409 1415 1419 1424 1430 1439 1442 1442 1445 1456 1465 1464 1463 1465 1466 1478 1463 1471 1467 1477 1472 1464 1451 1453 1452 1449 1449 1446 1446 1443
1243 1250 1255 1259 1265 1270 1275 1279 1286 1295 1302 1312 1316 1322 1329 1335 1341 1349 1357 1362 1368 1382 1404 1410 1417 1420 1423 1426 1427 1433 1440 1439 1441 1442 1450 1458 1460 1462 1470 1466 1461 1459 1459 1463 1461 1446 1447 1448 1447 1446 1446 1445 1442 1439
1237 1242 1247 1253 1257 1262 1268 1276 1282 1293 1302 1309 1316 1323 1329 1337 1345 1352 1358 1366 1370 1387 1408 1422 1421 1421 1425 1427 1428 1429 1431 1435 1438 1443 1448 1456 1459 1457 1462 1458 1461 1456 1455 1453 1455 1445 1440 1438 1438 1435 1439 1441 1437 1436
1233 1237 1241 1247 1253 1258 1266 1275 1283 1291 1300 1306 1316 1323 1332 1340 1345 1353 1362 1370 1374 1382 1403 1419 1421 1426 1429 1428 1427 1430 1431 1434 1439 1444 1450 1456 1455 1456 1455 1456 1450 1444 1442 1451 1448 1437 1436 1435 1435 1435 1433 1433 1432 1432
1234 1235 1239 1245 1250 1258 1268 1276 1285 1293 1299 1309 1319 1328 1336 1342 1348 1355 1373 1381 1380 1380 1395 1418 1429 1431 1431 1430 1431 1431 1432 1437 1440 1443 1446 1449 1451 1454 1460 1453 1433 1432 1432 1432 1432 1434 1434 1434 1434 1431 1429 1428 1430 1430
1232 1237 1239 1244 1252 1259 1266 1277 1284 1294 1303 1314 1324 1333 1345 1351 1357 1361 1368 1377 1383 1385 1391 1417 1427 1431 1433 1432 1434 1436 1436 1439 1441 1444 1445 1448 1450 1451 1454 1447 1429 1429 1430 1430 1429 1432 1432 1431 1429 1426 1425 1425 1427 1427
1232 1238 1243 1250 1256 1263 1274 1280 1290 1301 1312 1323 1333 1344 1351 1357 1362 1368 1375 1381 1386 1383 1391 1413 1429 1428 1432 1434 1437 1438 1441 1443 1444 1445 1445 1449 1449 1447 1444 1426 1425 1425 1425 1425 1423 1425 1426 1426 1425 1423 1422 1424 1424 1423
1239 1245 1252 1259 1267 1274 1280 1293 1302 1313 1322 1330 1338 1347 1357 1364 1369 1377 1382 1385 1384 1384 1394 1413 1423 1431 1431 1435 1436 1440 1442 1447 1447 1447 1445 1448 1445 1442 1427 1425 1424 1423 1426 1425 1422 1422 1422 1422 1421 1421 1421 1421 1420 1418
1251 1258 1264 1272 1277 1286 1293 1301 1312 1322 1326 1336 1345 1354 1364 1371 1375 1378 1385 1386 1387 1392 1401 1416 1416 1423 1431 1435 1438 1443 1442 1448 1454 1448 1447 1443 1434 1426 1426 1424 1424 1422 1420 1420 1418 1418 1419 1418 1419 1419 1417 1416 1415 1414
1268 1279 1286 1293 1299 1305 1310 1319 1324 1324 1338 1342 1351 1362 1369 1375 1376 1381 1390 1393 1398 1407 1411 1417 1417 1421 1429 1432 1437 1439 1444 1444 1454 1447 1444 1439 1432 1422 1425 1425 1426 1424 1423 1421 1419 1418 1417 1417 1416 1415 1413 1412 1410 1408
1289 1297 1304 1309 1313 1318 1321 1323 1329 1339 1341 1342 1347 1362 1373 1377 1381 1391 1402 1401 1402 1410 1413 1414 1418 1422 1428 1432 1435 1440 1440 1443 1442 1440 1441 1443 1426 1422 1424 1425 1424 1424 1423 1421 1419 1417 1416 1416 1414 1412 1409 1407 1405 1403
1305 1310 1314 1317 1320 1322 1327 1333 1337 1341 1345 1350 1359 1369 1374 1382 1390 1397 1411 1402 1408 1409 1411 1414 1420 1421 1430 1432 1435 1436 1438 1447 1440 1439 1437 1429 1424 1422 1422 1422 1423 1422 1421 1419 1417 1415 1413 1412 1409 1407 1405 1403 1401 1400
1315 1319 1323 1327 1331 1333 1336 1340 1343 1348 1352 1354 1361 1380 1386 1398 1394 1394 1394 1399 1404 1405 1406 1410 1418 1423 1426 1430 1433 1441 1439 1439 1445 1441 1430 1427 1421 1421 1422 1423 1422 1420 1418 1416 1414 1412 1410 1408 1406 1403 1401 1400 1397 1396
1324 1326 1329 1333 1336 1339 1343 1347 1349 1351 1354 1361 1369 1392 1390 1386 1387 1391 1396 1397 1403 1407 1407 1415 1422 1422 1427 1433 1435 1436 1439 1439 1434 1432 1428 1421 1421 1421 1420 1419 1417 1416 1414 1412 1411 1409 1406 1404 1402 1400 1399 1397 1395 1392
1332 1334 1338 1343 1345 1348 1350 1352 1353 1355 1362 1369 1375 1382 1386 1390 1397 1398 1400 1402 1405 1408 1412 1415 1422 1427 1430 1430 1432 1436 1433 1432 1430 1425 1422 1421 1420 1420 1418 1416 1414 1412 1410 1408 1407 1405 1403 1401 1400 1398 1396 1394 1391 1389
1338 1339 1344 1346 1348 1350 1352 1354 1356 1361 1368 1375 1383 1384 1389 1393 1396 1398 1400 1403 1406 1410 1414 1416 1423 1423 1428 1432 1430 1429 1435 1429 1422 1422 1421 1420 1419 1417 1415 1413 1412 1410 1408 1407 1405 1403 1401 1399 1397 1395 1393 1390 1388 1386
1341 1346 1349 1350 1351 1353 1355 1358 1364 1371 1379 1385 1387 1389 1391 1393 1397 1400 1403 1406 1409 1410 1412 1416 1417 1422 1432 1428 1429 1423 1421 1421 1420 1420 1418 1417 1416 1415 1413 1412 1410 1409 1407 1406 1404 1402 1400 1398 1396 1394 1391 1389 1387 1385
1349 1351 1353 1354 1355 1357 1362 1368 1372 1379 1386 1388 1391 1393 1396 1398 1400 1402 1404 1406 1408 1410 1412 1415 1419 1425 1423 1419 1418 1419 1419 1418 1418 1417 1416 1415 1414 1413 1411 1410 1409 1408 1407 1405 1402 1400 1398 1397 1394 1392 1389 1387 1384 1382
1355 1356 1357 1358 1358 1361 1367 1373 1375 1378 1386 1390 1392 1395 1396 1398 1400 1402 1404 1406 1409 1412 1415 1417 1417 1415 1416 1416 1417 1416 1416 1416 1415 1414 1414 1413 1412 1411 1410 1409 1408 1407 1405 1403 1401 1399 1397 1395 1392 1389 1387 1384 1381 1377
1358 1359 1359 1360 1360 1363 1369 1373 1377 1381 1385 1389 1391 1393 1396 1397 1399 1402 1405 1408 1411 1412 1412 1410 1411 1412 1413 1414 1414 1414 1414 1413 1413 1413 1412 1411 1410 1409 1409 1408 1406 1405 1403 1401 1399 1397 1394 1392 1389 1386 1383 1380 1376 1372
1359 1360 1360 1360 1363 1367 1373 1377 1379 1383 1386 1389 1391 1393 1395 1398 1399 1402 1405 1408 1407 1405 1407 1407 1408 1410 1410 1411 1411 1411 1412 1412 1411 1411 1411 1410 1409 1408 1407 1406 1405 1403 1401 1399 1396 1394 1391 1389 1385 1382 1378 1373 1369 1364
1361 1361 1363 1365 1368 1373 1382 1381 1382 1385 1389 1391 1392 1394 1396 1398 1400 1403 1404 1403 1401 1401 1402 1404 1405 1406 1407 1408 1409 1410 1410 1410 1410 1410 1409 1409 1408 1407 1406 1404 1403 1401 1399 1396 1394 1391 1388 1385 1381 1377 1373 1368 1363 1359
1365 1367 1369 1372 1375 1381 1382 1383 1385 1387 1390 1392 1394 1396 1397 1398 1401 1402 1402 1398 1397 1397 1399 1401 1403 1404 1406 1407 1408 1408 1408 1408 1408 1408 1408 1407 1406 1405 1404 1402 1401 1399 1396 1393 1390 1387 1384 1380 1376 1372 1369 1364 1359 1354
1371 1375 1376 1378 1379 1382 1386 1388 1388 1389 1394 1394 1395 1398 1397 1398 1401 1403 1399 1393 1393 1395 1397 1399 1401 1403 1404 1405 1405 1406 1406 1406 1406 1406 1405 1405 1404 1403 1402 1400 1398 1395 1392 1390 1387 1383 1380 1377 1373 1369 1365 1361 1356 1350
1376 1376 1378 1378 1381 1383 1385 1391 1392 1393 1393 1395 1395 1394 1395 1398 1402 1398 1391 1388 1390 1392 1395 1397 1399 1401 1402 1402 1403 1403 1403 1403 1403 1403 1402 1402 1402 1401 1399 1396 1394 1393 1390 1387 1384 1380 1377 1374 1371 1367 1363 1358 1354 1348
1378 1378 1377 1378 1379 1381 1383 1384 1386 1388 1393 1394 1392 1395 1397 1401 1399 1387 1385 1386 1389 1392 1394 1396 1397 1398 1399 1399 1399 1399 1399 1400 1400 1401 1400 1400 1399 1398 1396 1394 1391 1390 1388 1385 1382 1379 1375 1372 1369 1365 1361 1357 1353 1347
1374 1375 1378 1378 1379 1380 1382 1384 1385 1386 1385 1384 1387 1392 1393 1391 1387 1382 1383 1386 1388 1390 1392 1393 1394 1395 1395 1395 1395 1396 1397 1397 1398 1398 1398 1398 1396 1395 1393 1391 1389 1387 1386 1383 1381 1378 1375 1372 1368 1364 1360 1356 1352 1348
1374 1375 1377 1378 1379 1379 1379 1380 1379 1377 1378 1379 1382 1384 1381 1380 1380 1381 1383 1384 1386 1387 1388 1389 1390 1391 1391 1392 1393 1394 1394 1395 1396 1396 1396 1396 1394 1393 1391 1390 1388 1386 1384 1382 1380 1377 1374 1371 1368 1365 1361 1357 1353 1349
1373 1374 1376 1377 1378 1377 1374 1375 1375 1375 1376 1377 1378 1378 1378 1379 1380 1380 1381 1381 1382 1383 1385 1385 1386 1387 1388 1390 1391 1392 1392 1393 1394 1395 1394 1393 1392 1391 1389 1388 1386 1384 1383 1381 1379 1376 1374 1372 1369 1366 1363 1360 1355 1352
1373 1374 1375 1375 1374 1373 1373 1374 1374 1374 1375 1375 1375 1376 1376 1376 1375 1376 1376 1377 1378 1379 1380 1381 1383 1384 1386 1387 1388 1390 1391 1392 1392 1392 1392 1391 1390 1389 1387 1386 1384 1383 1381 1379 1377 1375 1373 1371 1369 1366 1363 1360 1357 1354
1372 1373 1373 1375 1373 1372 1372 1372 1372 1372 1372 1372 1372 1372 1372 1372 1372 1370 1368 1369 1372 1375 1377 1379 1380 1381 1384 1385 1386 1387 1389 1390 1390 1390 1389 1389 1388 1387 1385 1384 1383 1381 1380 1378 1377 1375 1373 1371 1369 1367 1364 1361 1359 1356
1372 1372 1372 1372 1372 1371 1372 1372 1371 1371 1370 1370 1369 1370 1370 1371 1370 1368 1367 1367 1370 1373 1375 1377 1379 1380 1382 1383 1385 1386 1387 1387 1388 1388 1387 1387 1386 1385 1384 1383 1381 1380 1379 1378 1376 1374 1373 1371 1369 1367 1365 1363 1361 1359